Location: Newark
(52.6872°N, 1.2822°W)
Time: 08:27:52
(UTC+00:00)

ISS - Visible Passes

Search period start: 22 November 2019 00:00
Search period end: 02 December 2019 00:00
Orbit: 412 x 421 km, 51.6° (Epoch: 22 November)

Date Brightness Start Highest point End Pass type
(mag) Time Alt. Az. Time Alt. Az. Time Alt. Az.
23 Nov -1.5 18:15:13 10° S 18:16:34 16° SSE 18:16:34 16° SSE visible
24 Nov -1.5 17:27:50 10° SSE 17:29:25 13° SE 17:30:15 12° SE visible
24 Nov -1.0 19:02:20 10° SW 19:03:10 16° SW 19:03:10 16° SW visible
25 Nov -2.5 18:14:09 10° SW 18:16:46 31° S 18:16:46 31° S visible
26 Nov -2.2 17:26:08 10° SSW 17:28:54 24° SSE 17:30:19 18° ESE visible
26 Nov -1.3 19:01:56 10° WSW 19:03:13 21° WSW 19:03:13 21° WSW visible
27 Nov -1.7 16:38:19 10° S 16:40:38 17° SE 16:42:56 10° E visible
27 Nov -3.3 18:13:35 10° WSW 18:16:43 52° S 18:16:43 52° S visible
28 Nov -3.0 17:25:18 10° SW 17:28:28 41° SSE 17:30:11 22° E visible
28 Nov -1.3 19:01:41 10° W 19:03:04 23° W 19:03:04 23° W visible
29 Nov -2.4 16:37:06 10° SW 16:40:06 31° SSE 16:43:08 10° E visible
29 Nov -3.7 18:13:14 10° WSW 18:16:30 70° S 18:16:30 70° S visible
30 Nov -3.5 17:24:48 10° WSW 17:28:08 62° SSE 17:29:56 24° E visible
30 Nov -1.3 19:01:25 10° W 19:02:49 23° W 19:02:49 23° W visible
01 Dec -3.1 16:36:25 10° WSW 16:39:41 51° SSE 16:42:58 10° E visible
01 Dec -3.7 18:12:57 10° W 18:16:14 75° SSW 18:16:14 75° SSW visible
